DELTA 1 DEB, 3051

Orbit data source: Space-Track

DELTA 1 DEB, 3051 is space debris in SSO originally from a launch on Fri, 10 Nov 1967 UTC launched from the Air Force Western Test Range (AFWTR). Debris objects in space refer to the collection of defunct objects orbiting the Earth. Examples of debris include non-operational satellites, rocket bodies, and fragments generated from explosions, collisions, or faulty payload assembly.

Loading next visibility...
Identifier
3051, 1967-114C
Orbit
SSO
Country
Flag of USUS
Related business
Manufacturer
Unknown
Mission
Spacecraft
Bus & Motor
Unknown
Mass
Unknown
Launch date (UTC)
1967-11-10 (58 years ago)
Launch vehicle
Unknown
Launch site
Air Force Western Test Range (AFWTR)
Object type
Payload
Rocket body
Debris
Shape & HBR
Unknown shape, 0.1 m
Radar Cross Section
Small (<0.1 m²)

Expand to show TLE details & history
Last TLE update: 1 day ago

TLE from 1 day ago
0 DELTA 1 DEB
1 03051U 67114C   26125.40831215 -.00000020  00000-0  12224-3 0  9995
2 03051 101.1610 100.2878 0089284 204.3150 309.8596 12.62290128693868
Epoch: 2026-05-05T09:47Z
TLE epoch observation values (Epoch: 2026-05-05T09:47:58.169Z)
Latitude
26.10823°
Longitude
-84.46718°
Altitude
1,372.193 km
Speed
7.195 km/s
True Right ascension
19h 03m 14s
True Declination
25° 59' 00"
Sunlit
Object was in daylight at epoch
Visualization orbit readout
Latitude
Unknown
Longitude
Unknown
Altitude
Unknown
Speed
Unknown
Apparent Right ascension
Unknown
Apparent Declination
Unknown
Sunlit
N/A
Visualization observer readout
Local Sidereal Time
21:37:17
Azimuth
Unknown
Elevation
Unknown
Doppler factor
Unknown
Orbital elements
Apogee altitude
1,480.547 km
Perigee altitude
1,341.458 km
Semi-major axis
7,789.14 km
Eccentricity
0.00893
Inclination
101.161°
RAAN
100.2878°
Arg. of periapsis
204.315°
True anomaly
309.0686°
Mean anomaly
309.8596°
Eccentric anomaly
309.46467°
Mean motion
3.15725 °/min
Orbital period
114.02 mins
BSTAR
0.00012224
Loading maneuver chart data...
Computing Atmospheric mass density...
Loading historical data...
Loading historical data...
Loading historical data...
Loading historical data...
Loading historical data...
Loading historical data...
Loading historical data...
Other satellites on launch #114 in the year 1967 (1967-11-10 UTC)

Documentation

Showing up to 5 results
|